Flag for Seychelles Weather past 2 weeks in Victoria, Seychelles

Now
81 °F

Sprinkles. Partly sunny.


Feels Like: 85 °F
Forecast: 74 / 78 °F
Wind: 16 mph from Southeast

Location: National Airport

Current Time: Jul 30, 2014 at 9:11:53 AM

Latest Report: Jul 30, 2014 at 8:00 AM


Visibility: N/A

Pressure: 29.95 "Hg

Humidity: 74%

Dew point: 72 °F

Location of VictoriaLocation

Historic Weather in Victoria — Graph

°F

Victoria temperature yesterday

Maximum temperature yesterday: 84 °F (at 11:00 AM)
Minimum temperature yesterday: 79 °F (at 12:00 AM)
Average temperature yesterday: 81 °F

Past Weeks' High & Low Weather Summary

 TemperatureHumidityPressure
High86 °F (Jul 27, 2:00 PM)94% (Jul 27, 3:00 AM)30.01 "Hg (Jul 27, 3:00 AM)
Low75 °F (Jul 27, 3:00 AM)62% (Jul 18, 11:00 AM)29.86 "Hg (Jul 15, 3:00 PM)
Average80 °F79%29.92 "Hg
* Reported Jul 15 8:00 AM — Jul 30 8:00 AM, Victoria, Weather by CustomWeather, © 2014

Note: Actual official high and low records may vary slightly from our data, if they occured in-between our weather recording intervals... More about our weather records

Advertising

Victoria weather history for previous 24 hours

 ConditionsComfort  
Time TempWeatherWind HumidityBarometerVisibility
8:00 AM
Jul 30
81 °FSprinkles. Partly sunny.16 mph74%29.95 "HgN/A
7:00 AM79 °FPartly sunny.17 mph74%29.92 "HgN/A
6:00 AM79 °FPassing clouds.14 mph74%29.92 "HgN/A
5:00 AM79 °FPassing clouds.16 mph74%29.89 "HgN/A
4:00 AM79 °FPassing clouds.12 mph79%29.89 "HgN/A
3:00 AM79 °FPassing clouds.21 mph74%29.89 "HgN/A
2:00 AM79 °FPassing clouds.21 mph79%29.92 "HgN/A
1:00 AM79 °FPassing clouds.18 mph74%29.92 "HgN/A
12:00 AM79 °FPassing clouds.18 mph79%29.95 "HgN/A
11:00 PM
Jul 29
79 °FPassing clouds.15 mph79%29.95 "HgN/A
10:00 PM81 °FPassing clouds.14 mph74%29.95 "HgN/A
9:00 PM81 °FPassing clouds.12 mph74%29.95 "HgN/A
8:00 PM81 °FPassing clouds.16 mph74%29.95 "HgN/A
7:00 PM81 °FPassing clouds.16 mph74%29.92 "HgN/A
6:00 PM81 °FScattered clouds.20 mph74%29.92 "HgN/A
5:00 PM81 °FSprinkles. Partly sunny.15 mph79%29.89 "HgN/A
4:00 PM82 °FScattered clouds.16 mph74%29.89 "HgN/A
3:00 PM82 °FScattered clouds.16 mph74%29.89 "HgN/A
2:00 PM84 °FScattered clouds.13 mph70%29.89 "HgN/A
1:00 PM84 °FScattered clouds.15 mph66%29.92 "HgN/A
12:00 PM84 °FPartly sunny.14 mph70%29.95 "HgN/A
11:00 AM84 °FScattered clouds.15 mph70%29.95 "HgN/A
10:00 AM82 °FScattered clouds.14 mph74%29.98 "HgN/A
9:00 AM82 °FScattered clouds.13 mph74%29.98 "HgN/A
Weather by CustomWeather, © 2014

See weather overviewHow to use our weather pages